This is the latest recevied weather packets stored in our database for station/object KC4LZN. If no packets are shown the sender has not sent any weather packets the latest 10 day(s).
| Time | Temp. | Humidity | Pressure | Rain* | Wind** | Luminosity | Snow |
|---|---|---|---|---|---|---|---|
| 1777815329 | 19.44° C | 80% | 1018.7 hPa | 0 mm | - | 215 W/m² | - |
| 1777815026 | 19.44° C | 80% | 1018.7 hPa | 0 mm | - | 459 W/m² | - |
| 1777814723 | 19.44° C | 81% | 1018.7 hPa | 0 mm | - | 736 W/m² | - |
| 1777814419 | 18.89° C | 84% | 1018.6 hPa | 0 mm | - | 784 W/m² | - |
| 1777814117 | 18.33° C | 86% | 1018.4 hPa | 0 mm | - | 174 W/m² | - |
| 1777813813 | 18.33° C | 87% | 1018.7 hPa | 0 mm | - | 202 W/m² | - |
| 1777813510 | 17.78° C | 89% | 1018.6 hPa | 0 mm | - | 216 W/m² | - |
| 1777813209 | 17.78° C | 90% | 1018.5 hPa | 0 mm | - | 193 W/m² | - |
| 1777812906 | 17.78° C | 91% | 1018.5 hPa | 0 mm | - | 171 W/m² | - |
| 1777812602 | 17.78° C | 91% | 1018.4 hPa | 0 mm | - | 182 W/m² | - |
| 1777812299 | 17.78° C | 91% | 1018.4 hPa | 0 mm | - | 97 W/m² | - |
| 1777811997 | 17.78° C | 91% | 1018.3 hPa | 0 mm | - | 130 W/m² | - |
| 1777811696 | 17.78° C | 91% | 1018.3 hPa | 0 mm | - | 151 W/m² | - |
| 1777811391 | 17.78° C | 91% | 1018.3 hPa | 0 mm | - | 163 W/m² | - |
| 1777811089 | 17.78° C | 91% | 1018.2 hPa | 0 mm | - | 152 W/m² | - |
| 1777810786 | 17.78° C | 91% | 1018.1 hPa | 0 mm | - | 72 W/m² | - |
| 1777810483 | 17.78° C | 91% | 1018.2 hPa | 0 mm | - | 126 W/m² | - |
| 1777810179 | 17.22° C | 92% | 1017.9 hPa | 0 mm | - | 148 W/m² | - |
| 1777809876 | 17.22° C | 93% | 1018 hPa | 0 mm | - | 94 W/m² | - |
| 1777809574 | 17.22° C | 93% | 1017.9 hPa | 0 mm | - | 70 W/m² | - |
| 1777809271 | 17.22° C | 94% | 1018 hPa | 0 mm | - | 75 W/m² | - |
| 1777808969 | 16.67° C | 94% | 1017.9 hPa | 0 mm | - | 64 W/m² | - |
| 1777808666 | 16.67° C | 95% | 1017.7 hPa | 0 mm | - | 58 W/m² | - |
| 1777808362 | 16.67° C | 95% | 1017.5 hPa | 0 mm | - | 45 W/m² | - |
| 1777808061 | 16.67° C | 95% | 1017.7 hPa | 0 mm | - | 54 W/m² | - |
* Rain latest hour (hover to see other rain measurements)
** Current wind speed in m/s (hover to see current wind gust speed)